This is the latest recevied weather packets stored in our database for station/object EA1IOK-13. If no packets are shown the sender has not sent any weather packets the latest 10 day(s).
| Time | Temp. | Humidity | Pressure | Rain* | Wind** | Luminosity | Snow |
|---|---|---|---|---|---|---|---|
| 1777905566 | 11.67° C | 84% | 1014.9 hPa | 0.25 mm | - | - | - |
| 1777905350 | 11.67° C | 84% | 1014.9 hPa | 0.25 mm | - | - | - |
| 1777904524 | 12.22° C | 81% | 1015 hPa | 0 mm | - | - | - |
| 1777904452 | 12.22° C | 81% | 1015 hPa | 0 mm | - | - | - |
| 1777903782 | 12.78° C | 81% | 1015 hPa | 0 mm | - | - | - |
| 1777903561 | 12.78° C | 81% | 1015 hPa | 0 mm | - | - | - |
| 1777901750 | 12.22° C | 78% | 1014.9 hPa | 0 mm | - | - | - |
| 1777900852 | 12.78° C | 78% | 1014.9 hPa | 0 mm | - | - | - |
| 1777898149 | 12.22° C | 79% | 1014.7 hPa | 0 mm | - | - | - |
| 1777897251 | 12.78° C | 79% | 1014.8 hPa | 0 mm | - | - | - |
| 1777896583 | 13.33° C | 76% | 1014.8 hPa | 0 mm | - | - | - |
| 1777896351 | 13.33° C | 76% | 1014.8 hPa | 0 mm | - | - | - |
| 1777895451 | 13.89° C | 75% | 1014.7 hPa | 0 mm | - | - | - |
| 1777894550 | 13.33° C | 76% | 1014.9 hPa | 0 mm | - | - | - |
| 1777893652 | 13.33° C | 73% | 1015 hPa | 0 mm | - | - | - |
| 1777892750 | 13.33° C | 75% | 1015.1 hPa | 0 mm | - | - | - |
| 1777890950 | 12.78° C | 80% | 1015.3 hPa | 0 mm | - | - | - |
| 1777890248 | 12.78° C | 77% | 1015.3 hPa | 0 mm | - | - | - |
| 1777890052 | 12.78° C | 77% | 1015.3 hPa | 0 mm | - | - | - |
| 1777889150 | 12.78° C | 82% | 1015.4 hPa | 0 mm | - | - | - |
| 1777888252 | 12.22° C | 84% | 1015.4 hPa | 0 mm | - | - | - |
| 1777887349 | 11.67° C | 83% | 1015.5 hPa | 0 mm | - | - | - |
| 1777885728 | 11.67° C | 87% | 1015.4 hPa | 0 mm | - | - | - |
| 1777885549 | 11.67° C | 87% | 1015.4 hPa | 0 mm | - | - | - |
| 1777883750 | 11.11° C | 88% | 1015.5 hPa | 0 mm | - | - | - |
* Rain latest hour (hover to see other rain measurements)
** Current wind speed in m/s (hover to see current wind gust speed)